Regional Weather Roundup
Issued by NWS Albany, NY

Home | Current Version | Previous Version | Graphics & Text | Print | Product List | Glossary Off
Versions: 1 2 3 4 5 6 7 8 9 10 11 12 13 14 15 16 17 18 19 20 21 22 23 24 25 26 27 28 29 30 31 32 33 34 35 36 37 38 39 40 41 42 43 44 45 46 47 48 49 50

000
ASUS41 KALY 041210
RWRALY

NEW YORK STATE HOURLY WEATHER ROUNDUP
NATIONAL WEATHER SERVICE ALBANY NY
800 AM EDT SAT JUL 04 2015

NOTE: "FAIR" INDICATES FEW OR NO CLOUDS BELOW 12,000 FEET WITH NO
SIGNIFICANT WEATHER AND/OR NO OBSTRUCTIONS TO VISIBILITY.

NYZ032-033-038>043-046>054-057>066-NYZ062>081-041300-
EAST


CITY           SKY/WX    TMP DP  RH WIND       PRES   REMARKS
ALBANY         CLOUDY    62  55  77 CALM      29.97R
GLENS FALLS    CLOUDY    61  55  81 CALM      29.97S
POUGHKEEPSIE   CLOUDY    66  60  81 CALM      29.95F
NEWBURGH       PTSUNNY   64  63  94 CALM      29.98S
MONTGOMERY     LGT RAIN  64  61  90 W3        29.97S
WHITE PLAINS   CLOUDY    67  61  81 E3        29.96S
ISLIP          CLOUDY    68  61  78 E7        29.94F
NEW YORK CITY  CLOUDY    70  61  73 NE8       29.94F
CENTRAL PARK   CLOUDY    71  57  61 VRB3      29.97F
$$

NYZ005>009-017-018-044>046-055-056-041300-
CENTRAL


CITY           SKY/WX    TMP DP  RH WIND       PRES   REMARKS
FULTON         CLOUDY    64  56  75 SE5       29.92R
SYRACUSE       CLOUDY    61  57  87 E5        29.93R
ROME           CLOUDY    62  55  77 SE6       29.96R
ELMIRA         LGT RAIN  64  63  96 CALM      29.95R FOG
BINGHAMTON     RAIN      60  60 100 SE5       29.98R FOG
MONTICELLO     CLOUDY    59  57  94 SW3       30.01R
$$

NYZ026>034-041>043-041300-
NORTH


CITY           SKY/WX    TMP DP  RH WIND       PRES   REMARKS
WATERTOWN      LGT RAIN  58  56  93 CALM      29.92R
FORT DRUM      NOT AVBL
MASSENA        CLOUDY    58  53  84 CALM      29.95R
SARANAC LAKE   CLOUDY    53  50  89 CALM      29.97R
PLATTSBURGH    CLOUDY    57  54  89 CALM      29.95S
$$

NYZ001>004-010>016-019>021-041300-
WEST


CITY           SKY/WX    TMP DP  RH WIND       PRES   REMARKS
NIAGARA FALLS  MOSUNNY   62  51  67 NE8       29.93R
BUFFALO        MOSUNNY   60  51  72 NE8       29.93R
DUNKIRK        MOSUNNY   63  58  83 CALM      29.92S
JAMESTOWN      CLOUDY    61  57  88 CALM      29.95R
WELLSVILLE     FOG       62  60  93 E3        29.98R VSB 3/4
ROCHESTER      CLOUDY    61  54  77 CALM      29.92R
PENN YAN       CLOUDY    66  61  84 SW8       29.94R
$$

             KEY
       WCI = WIND CHILL INDEX
       VSB = VISIBILITY
       HX  = HEAT INDEX
$$



USA.gov is the U.S. government's official web portal to all federal, state and local government web resources and services.